Regional Weather Roundup
Issued by NWS New Orleans/Baton Rouge, LA

Home | Current Version | Previous Version | Text Only | Print | Product List | Glossary On
Versions: 1 2 3 4 5 6 7 8 9 10 11 12 13 14 15 16 17 18 19 20 21 22 23 24 25 26 27
000
ASUS44 KLIX 250511
RWRLIX
NEW ORLEANS REGIONAL WEATHER ROUNDUP
NATIONAL WEATHER SERVICE NEW ORLEANS LA
1200 AM CDT SUN SEP 25 2016

NOTE: "FAIR" INDICATES FEW OR NO CLOUDS BELOW 12,000 FEET WITH NO
      SIGNIFICANT WEATHER AND/OR OBSTRUCTIONS TO VISIBILITY.
      SKY/WX - SKY CONDITION AND SIGNIFICANT WEATHER.
      TMP - AIR TEMPERATURE.     DP    - DEWPOINT TEMPERATURE.
      RH  - RELATIVE HUMIDITY.   PRES  - PRESSURE.
      HI  - HEAT INDEX.          WCI   - WIND CHILL INDEX.

*  THESE STATIONS ARE NOT NWS OR FAA STATIONS AND ARE NOT UNDER
   NWS QUALITY CONTROL.

LAZ038-040-048-061>063-065>067-069-250600-
SOUTHEAST LOUISIANA

CITY           SKY/WX    TMP DP  RH WIND       PRES   REMARKS
N.O. AUDUBON   NOT AVBL
N.O. INTL ARPT CLEAR     79  74  84 S3        30.01R
N.O. LAKEFRONT CLEAR     81  72  74 SE5       30.01S
N.O. DOWNTOWN*   N/A     84  74  71 S5        30.02S
RESERVE*         N/A     77  74  91 CALM      30.01S
SLIDELL        CLEAR     75  72  90 CALM      30.00S
BATON ROUGE    CLEAR     74  72  93 CALM      30.00S
BOOTHVILLE     CLEAR     80  75  84 CALM      30.01F
BELLE CHASSE   CLEAR     74  73  97 CALM      30.01S
BOGALUSA*        N/A     74  70  88 CALM      30.03R
GALLIANO*      NOT AVBL
NEW ROADS*       N/A     72  69  90 MISG      30.00S
GONZALES*        N/A     74  73  99 CALM      30.00R
HAMMOND*       CLEAR     73  70  88 CALM      30.01S
HOUMA*         CLEAR     72  71  98 CALM      30.00S FOG
PORT FOURCHON* CLEAR     82  72  69 SE7       30.00S

$$

MSZ070-080>082-250600-
SOUTHERN MISSISSIPPI

CITY           SKY/WX    TMP DP  RH WIND       PRES   REMARKS
MCCOMB         CLEAR     74  71  91 CALM      30.02S
GULFPORT       CLEAR     77  74  90 CALM      30.00S
BILOXI         CLEAR     77  75  92 CALM      30.00S
PASCAGOULA     CLEAR     71  71 100 CALM      30.00S

$$

COASTAL OBSERVATIONS
LAKE AND NEARSHORE STATIONS

STATION/POSITION TIME  TEMP    WIND        PRES    WAVE
                       AIR SEA DIR/SP/G            HT/PER
                 (UTC) (F)     (DEG/KT/KT) (MB)    (FT/S)
PASCAGOULA       0400   82     270/  3/  4 1015.6
WAVELAND YACHT   0400   80 87  250/  3/  4 1016.3
GRAND ISLE       0400   83 89  160/  2/  5 1016.3
SOUTHWEST PASS   0400          150/  4/  6   N/A
NEW CANAL        0400   81 86  210/  3/  4 1015.5
SHELL BEACH      0400   80 87  180/  4/  5 1016.4

OFFSHORE STATIONS

STATION/POSITION TIME  TEMP    WIND        PRES    WAVE
                       AIR SEA DIR/SP/G            HT/PER
                 (UTC) (F)     (DEG/KT/KT) (MB)    (FT/S)
64 S DAUPHIN ISL 0400   84 86  230/  6/  6 1016.0

$$





USA.gov is the U.S. government's official web portal to all federal, state and local government web resources and services.